📊 Raw Sensor Data

Showing records 35526 to 35550 of 84,879 total

ID Distance (ft) Battery V Battery A Int Temp (°F) Int Humid (%) Ext Temp (°F) Solar V RSSI SNR Time Stamp
49366 15.8 3.87 0 91 43 84 5.10 -69 8 08/16/2025 01:15 PM
49365 15.8 3.92 0 91 42 85 5.10 -69 8 08/16/2025 01:00 PM
49364 15.8 3.87 0 91 42 85 5.10 -69 8 08/16/2025 12:45 PM
49363 15.8 3.87 0 89 43 82 5.10 -70 8 08/16/2025 12:30 PM
49362 15.8 3.87 0 88 43 80 5.10 -69 8 08/16/2025 12:15 PM
49361 15.8 3.87 0 87 43 86 5.10 -68 8 08/16/2025 12:00 PM
49360 15.8 3.87 0 86 43 85 5.10 -70 7 08/16/2025 11:45 AM
49359 15.8 4.10 0 85 42 84 5.10 -70 8 08/16/2025 11:30 AM
49358 15.8 3.87 0 84 43 84 5.10 -68 8 08/16/2025 11:15 AM
49357 15.9 3.87 0 83 42 83 5.10 -70 8 08/16/2025 11:00 AM
49356 15.9 3.87 0 81 43 81 5.10 -70 8 08/16/2025 10:45 AM
49355 15.8 3.87 0 81 42 81 5.10 -70 8 08/16/2025 10:30 AM
49354 15.9 3.87 0 79 43 81 5.10 -69 7 08/16/2025 10:15 AM
49353 15.8 3.87 0 78 43 83 5.10 -69 8 08/16/2025 10:00 AM
49352 15.8 3.87 0 77 43 80 5.10 -70 7 08/16/2025 09:45 AM
49351 15.8 3.90 0 75 43 78 5.10 -69 7 08/16/2025 09:30 AM
49350 15.8 3.87 0 75 42 78 5.10 -71 7 08/16/2025 09:15 AM
49349 15.8 4.09 0 73 43 78 5.10 -69 8 08/16/2025 09:00 AM
49348 15.8 3.87 0 72 43 74 5.10 -69 8 08/16/2025 08:45 AM
49347 15.8 4.03 0 71 43 75 5.10 -70 8 08/16/2025 08:30 AM
49346 15.8 3.87 0 69 43 74 5.10 -70 8 08/16/2025 08:15 AM
49345 15.8 3.87 0 68 43 72 5.10 -69 8 08/16/2025 08:00 AM
49344 15.7 3.86 0 66 43 71 5.10 -68 7 08/16/2025 07:45 AM
49343 15.6 3.92 5 63 43 68 4.50 -69 8 08/16/2025 07:15 AM
49342 15.6 3.75 0 61 43 65 4.50 -70 7 08/16/2025 07:00 AM